Stations météo

Publicité
Saint-Quentin, France (7061): Température de l'air & dewpoint: 25.10.2020 23:00:00 - 31.10.2020 23:00:00 (CET)Saint-Quentin, France (7061): Température de l'air 5cm: 25.10.2020 23:00:00 - 31.10.2020 23:00:00 (CET)Saint-Quentin, France (7061): Température de l'air -20cm & Température de l'air -100cm: 25.10.2020 23:00:00 - 31.10.2020 23:00:00 (CET)Saint-Quentin, France (7061): Vitesse du vent & gusts: 25.10.2020 23:00:00 - 31.10.2020 23:00:00 (CET)Saint-Quentin, France (7061): Direction du vent: 25.10.2020 23:00:00 - 31.10.2020 23:00:00 (CET)Saint-Quentin, France (7061): reduced air pressure: 25.10.2020 23:00:00 - 31.10.2020 23:00:00 (CET)Saint-Quentin, France (7061): visibility: 25.10.2020 23:00:00 - 31.10.2020 23:00:00 (CET)Saint-Quentin, France (7061): Ensoleillement: 25.10.2020 23:00:00 - 31.10.2020 23:00:00 (CET)Saint-Quentin, France (7061): Quantités de précipitations: 25.10.2020 23:00:00 - 31.10.2020 23:00:00 (CET)
Date & Time tt [°C] td [°C] tt 5cm [°C] tt -20cm [°C] tt -100cm [°C] ff [km/h] ff [knt] fx [km/h] fx [knt] dd ppp [hPa] vv [km] sd [min] rr [mm]
31.10.2020 23:00:00 12,5 11,4 11,3 13,1 13,4 6 3 16 9 SW 1016,5 20 0 0,0
31.10.2020 22:00:00 13,0 11,7 12,5 13,1 13,4 13 7 33 18 WNW 1016,3 20 0 0,0
31.10.2020 21:00:00 14,8 13,5 13,3 13,0 13,4 17 9 28 15 SW 1015,1 20 0 0,0
31.10.2020 20:00:00 14,7 13,2 13,8 13,0 13,4 18 10 32 17 SSW 1014,9 20 0 0,2
31.10.2020 19:00:00 14,9 13,3 13,6 13,0 13,4 25 13 39 21 SSW 1014,7 20 0 0,2
31.10.2020 18:00:00 14,5 12,9 13,5 12,9 13,4 20 11 42 23 S 1014,7 10 0 0,8
31.10.2020 17:00:00 15,0 12,5 13,5 12,9 13,4 28 15 44 24 S 1014,5 15 0 0,4
31.10.2020 16:00:00 15,4 11,8 14,9 12,8 13,4 26 14 37 20 S 1015,1 20 13 0,0
31.10.2020 15:00:00 15,5 11,7 16,1 12,8 13,4 26 14 41 22 S 1015,6 20 47 0,0
31.10.2020 14:00:00 15,7 11,7 14,8 12,8 13,4 23 13 37 20 S 1016,0 20 36 0,0
31.10.2020 13:00:00 15,5 11,5 15,6 12,7 13,4 27 15 38 21 S 1016,8 20 50 0,0
31.10.2020 12:00:00 14,5 10,9 15,0 12,8 13,4 27 14 40 21 S 1017,8 20 47 0,0
31.10.2020 11:00:00 14,3 10,5 14,3 12,8 13,4 25 14 35 19 SSE 1018,4 20 60 0,0
31.10.2020 10:00:00 12,7 10,1 11,8 12,8 13,4 18 10 28 15 SSE 1020,0 20 10 0,0
31.10.2020 09:00:00 11,3 9,4 9,6 12,8 13,4 10 5 18 10 SSE 1020,6 20 28 0,0
31.10.2020 08:00:00 10,2 8,8 9,0 12,8 13,4 14 7 20 11 SSE 1020,8 20 0 0,0
31.10.2020 07:00:00 11,0 9,4 10,1 12,8 13,4 15 8 19 11 SSE 1021,1 20 0 0,0
31.10.2020 06:00:00 11,9 10,1 11,2 12,8 13,4 13 7 19 10 SSE 1021,8 20 0 0,0
31.10.2020 05:00:00 12,2 10,4 11,7 12,8 13,4 13 7 16 9 SSE 1022,2 20 0 0,0
31.10.2020 04:00:00 12,3 10,9 12,0 12,8 13,4 9 5 16 8 SSE 1022,7 20 0 0,0
31.10.2020 03:00:00 12,4 11,0 11,9 12,8 13,4 9 5 13 7 S 1023,2 20 0 0,0
31.10.2020 02:00:00 12,4 11,1 11,9 12,8 13,4 7 4 9 5 SSE 1023,7 20 0 0,0
31.10.2020 01:00:00 12,5 11,2 12,1 12,8 13,4 5 3 9 5 S 1024,1 20 0 0,0
31.10.2020 00:00:00 12,8 11,2 12,4 12,8 13,4 7 4 15 8 S 1024,2 20 0 0,0
30.10.2020 23:00:00 13,4 11,5 12,9 12,8 13,4 9 5 16 9 SSW 1024,5 20 0 0,0
30.10.2020 22:00:00 13,7 11,6 13,3 12,8 13,4 13 7 20 11 SSW 1024,4 20 0 0,0
30.10.2020 21:00:00 13,6 11,6 13,0 12,8 13,4 13 7 20 11 SSW 1024,2 20 0 0,0
30.10.2020 20:00:00 13,4 11,6 13,0 12,7 13,4 10 5 15 8 S 1023,9 20 0 0,0
30.10.2020 19:00:00 14,0 11,3 13,4 12,7 13,4 11 6 20 11 SSW 1023,9 20 0 0,0
30.10.2020 18:00:00 14,2 11,4 13,6 12,7 13,4 15 8 22 12 SSW 1023,5 20 0 0,0
30.10.2020 17:00:00 14,3 11,4 13,9 12,6 13,4 10 5 24 13 SW 1023,2 20 0 0,0
30.10.2020 16:00:00 14,5 11,6 14,4 12,6 13,4 16 9 28 15 SSW 1023,1 20 0 0,0
30.10.2020 15:00:00 14,7 11,8 14,8 12,6 13,4 18 10 28 15 SW 1022,8 20 0 0,0
30.10.2020 14:00:00 14,6 12,1 14,2 12,5 13,4 18 10 37 20 SW 1022,8 20 0 0,0
30.10.2020 13:00:00 14,8 11,9 13,6 12,5 13,4 24 13 40 22 SW 1022,6 20 2 0,0
30.10.2020 12:00:00 14,4 12,3 13,6 12,5 13,4 25 13 35 19 SW 1022,7 17 1 0,0
30.10.2020 11:00:00 14,2 12,4 13,2 12,5 13,5 22 12 33 18 SW 1022,5 20 0 0,2
30.10.2020 10:00:00 13,3 12,4 13,0 12,5 13,4 17 9 30 16 SW 1022,4 15 0 0,0
30.10.2020 09:00:00 13,1 12,2 12,8 12,5 13,5 20 11 32 17 SSW 1022,0 20 0 0,0
30.10.2020 08:00:00 13,2 11,6 12,5 12,5 13,5 22 12 42 23 SW 1021,4 20 0 0,0
30.10.2020 07:00:00 13,1 11,5 12,3 12,5 13,5 22 12 38 20 SW 1020,8 20 0 0,0
30.10.2020 06:00:00 12,9 11,1 12,1 12,5 13,5 22 12 35 19 SW 1020,6 20 0 0,0
30.10.2020 05:00:00 12,9 11,1 12,3 12,4 13,5 22 12 35 19 SW 1020,3 20 0 0,0
30.10.2020 04:00:00 13,2 11,3 12,6 12,4 13,5 22 12 35 19 SW 1020,0 20 0 0,0
30.10.2020 03:00:00 13,2 11,4 12,6 12,4 13,5 21 11 31 17 SW 1020,0 20 0 0,0
30.10.2020 02:00:00 13,1 11,5 12,5 12,4 13,5 19 10 32 17 SW 1020,1 20 0 0,0
30.10.2020 01:00:00 13,4 12,0 12,8 12,4 13,5 20 11 37 20 SW 1019,9 20 0 0,0
30.10.2020 00:00:00 13,7 12,1 13,3 12,3 13,5 26 14 38 20 SW 1019,4 20 0 0,0
29.10.2020 23:00:00 13,7 11,9 12,9 12,4 13,5 22 12 34 19 SW 1019,5 20 0 0,0
29.10.2020 22:00:00 13,5 11,9 12,8 12,3 13,5 23 12 36 19 SW 1019,3 20 0 0,0
29.10.2020 21:00:00 13,2 11,8 12,4 12,3 13,5 22 12 35 19 SSW 1019,4 20 0 0,0
29.10.2020 20:00:00 13,0 11,6 12,1 12,3 13,5 23 12 34 19 SSW 1019,1 20 0 0,0
29.10.2020 19:00:00 12,6 11,0 11,6 12,3 13,5 22 12 31 17 SSW 1018,9 20 0 0,0
29.10.2020 18:00:00 12,2 10,6 11,5 12,3 13,5 21 12 32 17 SSW 1018,9 20 0 0,0
29.10.2020 17:00:00 12,2 10,3 11,2 12,3 13,5 22 12 36 19 SSW 1019,1 20 0 0,0
29.10.2020 16:00:00 11,9 10,3 11,2 12,2 13,5 19 10 33 18 SSW 1019,1 20 0 0,2
29.10.2020 15:00:00 12,0 10,6 11,6 12,2 13,5 20 11 32 17 SSW 1019,5 17 0 0,4
29.10.2020 14:00:00 12,7 10,2 13,1 12,2 13,5 22 12 39 21 SW 1019,6 20 0 0,0
29.10.2020 13:00:00 12,8 10,2 12,9 12,2 13,5 26 14 36 19 WSW 1019,7 20 0 0,0
29.10.2020 12:00:00 12,0 9,7 12,1 12,2 13,5 22 12 36 20 SW 1019,6 20 0 0,0
29.10.2020 11:00:00 11,6 9,7 11,9 12,2 13,5 24 13 39 21 WSW 1019,4 20 0 0,0
29.10.2020 10:00:00 11,0 9,4 10,5 12,2 13,6 26 14 45 24 WSW 1019,0 20 0 0,0
29.10.2020 09:00:00 10,4 9,0 9,7 12,2 13,5 25 13 38 21 SW 1018,2 20 0 0,0
29.10.2020 08:00:00 10,0 8,6 9,4 12,2 13,7 22 12 38 20 SW 1017,4 20 0 0,0
29.10.2020 07:00:00 9,8 8,4 8,7 12,3 13,6 24 13 34 18 WSW 1016,6 20 0 0,0
29.10.2020 06:00:00 9,4 8,0 8,3 12,3 13,6 22 12 31 17 WSW 1015,8 20 0 0,0
29.10.2020 05:00:00 9,3 7,7 8,3 12,3 13,6 20 11 35 19 WSW 1014,9 20 0 0,0
29.10.2020 04:00:00 9,7 8,0 8,6 12,3 13,6 23 12 42 23 WSW 1014,1 20 0 0,2
29.10.2020 03:00:00 10,1 8,0 9,3 12,3 13,6 27 15 48 26 WSW 1013,4 20 0 0,0
29.10.2020 02:00:00 10,5 8,3 9,4 12,4 13,6 29 16 43 23 WSW 1012,6 20 0 0,2
29.10.2020 01:00:00 10,7 8,6 9,7 12,4 13,6 28 15 49 26 WSW 1012,3 16 0 0,0
29.10.2020 00:00:00 10,8 8,2 9,4 12,4 13,6 29 16 48 26 WSW 1011,6 20 0 0,0
28.10.2020 23:00:00 10,8 8,2 9,2 12,4 13,6 30 16 45 24 WSW 1011,1 20 0 0,0
28.10.2020 22:00:00 10,0 8,4 9,3 12,4 13,6 27 15 48 26 WSW 1010,5 20 0 0,8
28.10.2020 21:00:00 12,0 9,9 10,9 12,4 13,6 33 18 53 29 SW 1009,7 10 0 0,2
28.10.2020 20:00:00 12,3 9,5 11,3 12,4 13,6 30 16 48 26 SW 1009,1 20 0 0,0
28.10.2020 19:00:00 12,0 9,6 11,4 12,2 13,7 27 14 45 24 SSW 1008,8 20 0 0,0
28.10.2020 18:00:00 12,2 9,4 11,7 12,3 13,6 32 17 47 26 SW 1008,9 20 0 0,0
28.10.2020 17:00:00 12,5 9,3 11,3 12,3 13,6 27 14 50 27 SSW 1008,9 20 0 0,0
28.10.2020 16:00:00 12,4 9,4 11,1 12,3 13,6 29 16 54 29 SSW 1009,2 19 0 0,0
28.10.2020 15:00:00 13,3 9,2 13,1 12,3 13,6 31 17 51 28 SSW 1009,5 20 5 0,0
28.10.2020 14:00:00 13,2 9,3 13,2 12,3 13,6 29 15 55 30 SW 1009,8 20 0 0,0
28.10.2020 13:00:00 12,8 8,7 13,0 12,3 13,6 30 16 44 24 SW 1010,2 20 1 0,0
28.10.2020 12:00:00 12,3 8,9 11,7 12,3 13,6 26 14 41 22 SSW 1010,6 20 0 0,0
28.10.2020 11:00:00 11,4 9,0 11,4 12,3 13,7 24 13 39 21 SSW 1010,2 20 14 0,0
28.10.2020 10:00:00 10,8 8,7 10,1 12,3 13,7 27 15 39 21 SSW 1010,1 20 5 0,0
28.10.2020 09:00:00 10,2 8,6 8,8 12,3 13,6 23 13 40 21 SW 1009,7 20 35 0,0
28.10.2020 08:00:00 9,5 8,1 8,3 12,3 13,7 21 12 35 19 SW 1008,8 20 4 0,0
28.10.2020 07:00:00 9,6 8,4 8,6 12,4 13,7 20 11 31 17 SW 1008,1 20 0 0,0
28.10.2020 06:00:00 10,0 9,1 8,7 12,4 13,7 16 9 25 14 SW 1007,5 20 0 0,0
28.10.2020 05:00:00 10,8 9,7 9,9 12,3 13,7 18 10 29 16 SW 1006,9 20 0 0,0
28.10.2020 04:00:00 10,8 10,0 9,8 12,4 13,7 17 9 28 15 SW 1006,3 20 0 0,0
28.10.2020 03:00:00 11,0 10,1 10,0 12,3 13,7 16 9 27 15 SSW 1005,9 20 0 0,0
28.10.2020 02:00:00 11,7 10,8 11,0 12,3 13,7 15 8 23 12 SSW 1006,0 20 0 0,0
28.10.2020 01:00:00 11,8 10,7 10,9 12,3 13,7 16 9 24 13 SW 1005,9 20 0 0,0
28.10.2020 00:00:00 11,9 11,0 11,3 12,3 13,7 17 9 28 15 SW 1005,1 20 0 0,0
27.10.2020 23:00:00 12,0 11,2 11,0 12,3 13,7 18 10 28 15 SSW 1004,5 20 0 0,0
27.10.2020 22:00:00 12,1 11,3 11,5 12,3 13,7 18 10 39 21 SW 1003,9 20 0 0,0
27.10.2020 21:00:00 11,8 11,3 11,2 12,3 13,7 29 16 51 28 SSW 1003,1 19 0 0,8
27.10.2020 20:00:00 11,6 10,7 10,7 12,3 13,7 31 17 51 28 S 1002,4 20 0 0,0
27.10.2020 19:00:00 11,1 10,3 10,4 12,3 13,7 30 16 49 26 S 1002,4 20 0 0,0
27.10.2020 18:00:00 10,6 10,0 10,2 12,3 13,7 31 17 48 26 S 1002,6 20 0 0,2
27.10.2020 17:00:00 10,4 9,8 10,0 12,3 13,7 29 16 47 26 S 1003,2 15 0 0,0
27.10.2020 16:00:00 10,5 9,1 10,1 12,3 13,7 32 18 49 26 S 1003,5 15 0 0,2
27.10.2020 15:00:00 10,8 8,4 10,6 12,3 13,7 29 16 47 26 S 1004,5 20 0 0,0
27.10.2020 14:00:00 10,9 8,1 11,0 12,3 13,7 31 17 46 25 S 1005,2 20 0 0,0
27.10.2020 13:00:00 10,4 7,8 10,2 12,3 13,7 29 16 46 25 S 1006,2 20 0 0,0
27.10.2020 12:00:00 9,8 7,2 10,2 12,3 13,7 28 15 41 22 S 1006,9 20 0 0,0
27.10.2020 11:00:00 9,6 7,4 9,3 12,3 13,7 25 14 35 19 S 1007,1 20 10 0,0
27.10.2020 10:00:00 8,8 7,1 8,7 12,4 13,8 22 12 34 18 SSW 1007,1 20 0 0,0
27.10.2020 09:00:00 8,4 6,9 8,2 12,4 13,7 21 11 30 16 SSW 1007,1 20 13 0,0
27.10.2020 08:00:00 8,1 6,9 8,0 12,4 13,8 21 11 35 19 SSW 1006,8 20 1 0,0
27.10.2020 07:00:00 8,1 6,9 7,9 12,4 13,8 21 11 35 19 SW 1006,5 20 0 0,0
27.10.2020 06:00:00 8,0 6,8 7,9 12,5 13,7 22 12 35 19 SW 1006,2 20 0 0,0
27.10.2020 05:00:00 8,1 7,0 7,3 12,5 13,8 22 12 35 19 SW 1005,7 20 0 0,0
27.10.2020 04:00:00 8,0 6,9 6,7 12,5 13,7 21 11 34 18 SW 1005,4 20 0 0,0
27.10.2020 03:00:00 7,4 6,5 6,6 12,6 13,8 15 8 25 13 SW 1005,7 20 0 0,0
27.10.2020 02:00:00 8,0 6,9 7,3 12,6 13,8 16 8 25 13 SW 1005,7 20 0 0,0
27.10.2020 01:00:00 8,4 7,2 7,7 12,7 13,8 16 9 31 17 SW 1005,5 20 0 0,0
27.10.2020 00:00:00 8,9 7,3 7,5 12,7 13,8 22 12 36 19 SW 1005,6 20 0 0,0
26.10.2020 23:00:00 8,5 6,8 7,3 12,7 13,8 22 12 31 17 SW 1005,2 20 0 0,0
26.10.2020 22:00:00 8,6 6,6 7,6 12,7 13,7 19 10 31 17 SSW 1005,0 20 0 0,0
26.10.2020 21:00:00 9,3 6,7 8,0 12,8 13,8 18 10 30 16 SW 1004,4 20 0 0,0
26.10.2020 20:00:00 10,0 7,2 9,0 12,8 13,8 20 11 32 17 SW 1003,8 20 0 0,0
26.10.2020 19:00:00 10,3 7,4 8,9 12,7 13,7 24 13 38 20 SW 1003,5 20 0 0,0
26.10.2020 18:00:00 10,3 7,0 8,8 12,7 13,8 22 12 36 20 SW 1003,6 20 0 0,2
26.10.2020 17:00:00 11,4 6,9 10,7 12,7 13,8 24 13 41 22 SW 1003,0 20 20 0,0
26.10.2020 16:00:00 12,4 7,1 12,3 12,7 13,8 28 15 44 24 SW 1002,9 20 32 0,0
26.10.2020 15:00:00 12,9 7,3 12,8 12,7 13,8 26 14 45 25 SW 1002,4 20 34 0,0
26.10.2020 14:00:00 11,8 7,1 12,0 12,7 13,8 30 16 49 26 WSW 1002,6 20 19 0,0
26.10.2020 13:00:00 12,2 7,9 12,5 12,7 13,8 29 15 45 25 SW 1003,0 20 38 0,0
26.10.2020 12:00:00 11,9 8,2 13,7 12,8 13,8 24 13 40 22 SW 1003,1 20 60 0,0
26.10.2020 11:00:00 10,7 7,2 11,7 12,8 13,8 26 14 41 22 SW 1003,2 20 60 0,0
26.10.2020 10:00:00 9,4 7,2 8,9 12,9 13,8 25 14 38 20 SW 1003,4 20 60 0,0
26.10.2020 09:00:00 8,1 6,6 6,5 12,9 13,7 26 14 35 19 SSW 1003,7 20 40 0,0
26.10.2020 08:00:00 7,4 6,2 6,6 13,0 13,8 20 11 34 18 SSW 1003,2 20 0 0,0
26.10.2020 07:00:00 7,5 6,3 6,6 13,0 13,8 19 11 29 16 SSW 1002,7 20 0 0,0
26.10.2020 06:00:00 7,7 6,5 6,8 13,1 13,8 20 11 30 16 SSW 1001,7 20 0 0,0
26.10.2020 05:00:00 8,0 6,8 7,0 13,1 13,8 23 12 34 18 SSW 1001,6 20 0 0,0
26.10.2020 04:00:00 8,3 6,9 7,4 13,2 13,8 18 10 29 16 SSW 1001,8 20 0 0,0
26.10.2020 03:00:00 8,8 7,4 8,1 13,1 13,7 16 9 30 16 SW 1002,0 20 0 0,0
26.10.2020 02:00:00 8,9 8,1 7,6 13,2 13,7 15 8 28 15 SSW 1001,6 20 0 0,0
26.10.2020 01:00:00 9,5 8,7 8,3 13,2 13,7 15 8 26 14 SW 1001,6 20 0 0,0
26.10.2020 00:00:00 9,4 8,6 8,2 13,3 13,8 17 9 30 16 SSW 1001,9 20 0 0,0
25.10.2020 23:00:00 9,7 8,6 8,5 13,3 13,8 19 10 33 18 SSW 1001,7 20 0 0,0

tt = Température de l'air
td = dewpoint
tt 5cm = Température de l'air 5cm
tt -20cm = Température de l'air -20cm
tt -100cm = Température de l'air -100cm
ff = Vitesse du vent
fx = gusts
dd = Direction du vent
ppp = reduced air pressure
vv = visibility
sd = Ensoleillement
rr = Quantités de précipitations

stations d'obs. à proximité